Regional Weather Roundup
Issued by NWS

Home | Current Version | Previous Version | Text Only | Print | Product List | Glossary On
Versions: 1 2 3 4 5 6 7 8 9 10 11 12 13 14 15 16 17 18 19 20 21 22 23 24 25 26 27 28 29 30 31 32 33 34 35 36 37 38 39 40 41 42 43 44 45 46 47 48 49 50
000
ASHW40 PHFO 250843
RWRHI

WEATHER ROUNDUP FOR HAWAII
NATIONAL WEATHER SERVICE HONOLULU HI
1000 PM HST WED DEC 24 2014

THIS IS AN AUTOMATED REPORT THAT HAS NOT BEEN QUALITY CONTROLLED.

NOTE..."FAIR" INDICATES FEW OR NO CLOUDS BELOW 12,000 FEET WITH NO
SIGNIFICANT WEATHER AND/OR OBSTRUCTIONS TO VISIBILITY.

* - THESE SITES REPORT LIMITED FIELDS

HIZ001>004-250900-
KAUAI-NIIHAU-

CITY           SKY/WX    TMP DP  RH WIND       PRES   REMARKS
LIHUE APT      CLEAR     66  61  84 W9        29.83S
PORT ALLEN*      N/A     66 N/A N/A N7          N/A
POIPU*           N/A     61 N/A N/A N3          N/A
PRINCEVILLE*     N/A     66 N/A N/A MISG        N/A
KOKOLE POINT*  NOT AVBL
MOLOAA DAIRY*  NOT AVBL
WAIMEA HTS*      N/A     68  59  73 N3          N/A
PUU OPAE*        N/A     59  55  88 CALM        N/A
PUU LUA*       NOT AVBL
MAKAHA RIDGE*  NOT AVBL
$$

HIZ005>011-250900-
OAHU-

CITY           SKY/WX    TMP DP  RH WIND       PRES   REMARKS
HONOLULU       MOCLDY    72  68  88 CALM      29.81R
KALAELOA       PTCLDY    67  63  87 CALM      29.82S
KANEOHE MCB    PTCLDY    67  65  93 CALM      29.81S
WHEELER FIELD  FAIR      64  63  95 N3        29.82S
BELLOWS*         N/A    N/A N/A N/A W5          N/A
KAHUKU*          N/A    N/A N/A N/A S1          N/A
WHEELER*       NOT AVBL
WAIANAE HARBOR NOT AVBL
DILLINGHAM*      N/A     64  63  94 CALM        N/A
KAHUKU TRN*      N/A     64  63  94 S3          N/A
KAWAILOA*        N/A     64  63  94 E2          N/A
KII*             N/A     66  63  88 CALM        N/A
MAKUA RANGE*     N/A     66  63  88 E6          N/A
OAHU FOREST NW   N/A     61 -15   4 CALM        N/A
SCHOFIELD BRK*   N/A    N/A N/A N/A MISG        N/A
SCHOFIELD S*   NOT AVBL
WAIANAE VLY*     N/A    N/A N/A N/A N5          N/A
KUAOKALA*        N/A     66  63  88 CALM        N/A
HONOULIUULI*   NOT AVBL
MOKUOLOE IS*     N/A    N/A N/A N/A MISG        N/A
PALEHUA*         N/A     75  66  73 CALM        N/A
WAIAWA PHB*    NOT AVBL
$$

HIZ012>013-250900-
MOLOKAI-

CITY           SKY/WX    TMP DP  RH WIND       PRES   REMARKS
MOLOKAI AIRPT  PTCLDY    61  61 100 CALM      29.83R
KALAUPAPA      NOT AVBL
MAKAPULAPAI*     N/A     66  63  88 S5          N/A
MOLOKAI 1*       N/A     59  59 100 E1          N/A
PUU ALII*        N/A     53  52  95 S1G7        N/A
$$

HIZ016-250900-
KAHOOLAWE-

CITY           SKY/WX    TMP DP  RH WIND       PRES   REMARKS
KAHOOLAWE*       N/A     64 N/A N/A W2          N/A
HAKIOAWA*        N/A     65  64  96 MISG      30.24S
HONOKANAIA*      N/A     70  64  80 NW3       29.83R
KANELOA*         N/A     70  66  88 NW6       29.04S
KEALIALALO*    NOT AVBL
LUA MAKIKA*    NOT AVBL
$$

HIZ014>015-250900-
LANAI-

CITY           SKY/WX    TMP DP  RH WIND       PRES   REMARKS
LANAI CITY     FAIR      62  62 100 CALM      29.87S
LANAI 1*         N/A     64  64 100 SW1         N/A
$$

HIZ017>028-250900-
MAUI-

CITY           SKY/WX    TMP DP  RH WIND       PRES   REMARKS
KAHULUI        PTCLDY    66  63  90 S5        29.81S
KAPALUA-W MAUI NOT AVBL
HANA AIRPORT   CLEAR     64  63  94 CALM      29.84S
HANA*            N/A     66 N/A N/A S3          N/A
HALEAKALA SUMM   N/A     32  32 100 SW21G35     N/A  WCI  20
MAALAEA BAY*   NOT AVBL
HALEAKALA*     NOT AVBL
KAUPO GAP*       N/A     54  50  87 N7          N/A
KULA 1*          N/A     46  36  66 CALM        N/A
$$

HIZ023>026-250900-
BIG ISLAND OF HAWAII COAST AND LOWER SLOPES-

CITY           SKY/WX    TMP DP  RH WIND       PRES   REMARKS
KAILUA KONA    CLEAR     75  67  76 SW7       29.81R
HILO           CLOUDY    70  65  84 CALM      29.81S
HONOKAA*       NOT AVBL
KAWAIHAE MWT*    N/A     75 N/A N/A N3          N/A
KAWAIHAE*        N/A     75 N/A N/A W5          N/A
SOUTH POINT*     N/A     68 N/A N/A NW8         N/A
UPOLU AIRPORT*   N/A    N/A N/A N/A SW2         N/A
KAMUELA*       FOG       63  63 100 W8        29.91S VSB 1/2
HAKALAU*         N/A     48  48 100 SE1G8       N/A
KALOKO-HONOKO*   N/A     70  63  78 E3          N/A
PALI 2*          N/A     63  63 100 S8G15       N/A
KEALAKOMO*       N/A     84  79  84 NE2G8       N/A  HX  96
KAUPULEHU*       N/A     66  63  88 SW3         N/A
KAPAPALA*        N/A     64  63  95 CALM        N/A
LOWER KAHUKU*    N/A     57  55  94 N2          N/A
PUHE CS*       NOT AVBL
PUHO CS*         N/A     68  60  75 E3          N/A
PTA KEAMUKU*     N/A     57  55  94 S7          N/A
WAIKOLOA*        N/A     68  59  73 SE5         N/A
$$

HIZ027>028-250900-
BIG ISLAND OF HAWAII INTERIOR AND SUMMMITS-

CITY           SKY/WX    TMP DP  RH WIND       PRES   REMARKS
BRADSHAW FIELD CLOUDY    59  17  19 NW17G35   30.11S
MK VISITOR CEN NOT AVBL
MAUNA KEA*       N/A     23  -4  30 NW66        N/A  WCI  -1
MAUNA LOA*       N/A     43  -8  11 MISG        N/A
MAUNA LOA 1*   NOT AVBL
PTA KIPUKA*      N/A    N/A N/A N/A SW18G32     N/A
PTA RANGE 17*    N/A     52  41  66 NW9G20      N/A
PTA WEST*        N/A     52  52 100 VRB1        N/A
NENE CABIN*      N/A    N/A N/A N/A NW13G24     N/A
AHUMOA*          N/A    N/A N/A N/A S18G31      N/A
PTA PORTABLE*  NOT AVBL
PUU MALI*      NOT AVBL
$$

HIC003-250900-
NORTHWEST ISLANDS-

CITY           SKY/WX    TMP DP  RH WIND       PRES   REMARKS
MIDWAY ISLAND  MOCLDY    72  66  83 S8        30.13R
MIDWAY NOS*    NOT AVBL
FRENCH FRIGATE NOT AVBL
$$

PHZ110>124-180-250900-
BUOY REPORTS

STATION/POSITION TIME  TEMP    WIND        PRES    WAVE   SWELL
                       AIR SEA DIR/SP/G            HT/PER HT/DIR
                 (UTC) (F)     (DEG/KT/KT) (MB)    (FT/S) (FT/D)
BUOY 51001       NOT AVBL
BUOY 51101       0800   71 76  360/ 19/ 25 1011.5R  15/11  11/ 40
BUOY 51100       0800   70 74  270/ 10/ 16 1008.5S
BUOY 51003       0800   75 79  340/ 10/ 12 1010.5R  11/11  10
BUOY 51004       0654   75 78  160/  6/ 10 1009.3R  10/10  10/ 70
BARBERS PT BUOY  NOT AVBL
WAIMEA BAY BUOY  0800      76                N/A    12/11  10/ 10
KAILUA BAY BUOY  0800      76                N/A    11/10   7/ 40
LANAI BUOY       0800      78                N/A     4/13   2/290
BARBERS PT 2     0800      77                N/A     5/13   3/290
PAUWELA MAUI     0800      76                N/A    13/11  10/ 10
HILO             0800      77                N/A    11/13   8/340
KANEOHE BAY BUOY 0800      76                N/A    10/11   8/ 20
HANALEI KAUAI    NOT AVBL
KAHULUI HARBOR   0800   68 76  210/  1/  2 1009.4R
HONOLULU HARBOR  0800   72      CALM  /  3 1009.9R
KILO NALU        NOT AVBL
HILO HARBOR      0800   71     210/  2/  4 1008.9R
MOKUOLOE         0800   68 74  320/  1/  2 1009.6S
NAWILIWILI       0800      77                N/A
WHOTS BUOY       NOT AVBL
BUOY 51028       NOT AVBL
$$

......................KEY........................................
  SKY/WX - SKY CONDITIONS/PRESENT WEATHER
  TMP    - TEMPERATURE IN FAHRENHEIT
  DWPT   - DEWPOINT IN FAHRENHEIT
  RH     - RELATIVE HUMIDITY IN PERCENT
  WIND   - DIRECTION AND SPEED /MPH FOR ISLANDS...KTS FOR BUOYS/
  PRES   - MEAN SEA LEVEL PRESSURE IN INCHES OF HG
  VSB    - VISIBILITY IN MILES
  HX     - HEAT INDEX
  WCI    - WIND CHILL INDEX
  VRB    - VARIABLE WIND DIRECTION
  N/A    - NOT AVAILABLE



USA.gov is the U.S. government's official web portal to all federal, state and local government web resources and services.